Weather in Sergino

Russia / Perm Krai     58°30′48″N   54°16′19″E
temp.,
°C
wind,
m/s
gust,
m/s
humid.,
%
clouds,
%
prec.,
mm/h
press.,
hPa
HPBL,
m
26 january, tue
tue2623:000sw41192100 0.5 1024518
02:00−1sw41093100 0.0 1024382
05:00−2sw41193100 0.0 1024470
08:00−3sw4993100 0.0 1025521
11:00−4sw4891100 0.1 1025622
14:00−4sw4991100 0.0 1024587
17:00−4ssw3893100 0.1 1024541
20:00−5ssw2996100 0.0 1024295
27 january, wed
wed2723:00−6ssw269698 0.1 1023151
02:00−4ssw3895100 0.0 1023370
05:00−6s3895100 0.1 1024274
08:00−7s2897100 0.1 1023237
11:00−4ssw41092100 0.1 1023570
14:00−3s4992100 0.1 1023520
17:00−3s51191100 0.1 1021800
20:00−3ssw51290100 0.1 1019774
28 january, thu
thu2823:00−3ssw51390100 0.1 1017655
02:00−3ssw51292100 0.1 1017620
05:00−4ssw51195100 1.9 1016651
08:00−4sw51294100 1.4 1015648
11:00−4sw51293100 1.9 1015606
14:00−2sw4995100 0.9 1016527
17:00−2sw3795100 1.4 1017461
20:00−3ssw2596100 0.1 1019221
29 january, fri
fri2923:00−4ssw2496100 0.2 1019184
02:00−5s2397100 0.1 1020129
05:00−6sse2297100 0.5 102088
08:00−7se2397100 0.4 1020135
11:00−7se2696100 0.4 1019289
14:00−6ese3794100 0.0 1019356
17:00−7e4994100 0.1 1017359
20:00−7e41194100 0.0 1016424
30 january, sat
sat3023:00−11e51193100 0.1 1015416
02:00−14e51291100 0.0 1014522
05:00−14e51191100 0.1 1013507
08:00−14ese51194100 0.8 1012448
11:00−15ese51094100 1.3 1013362
14:00−15ese4894100 0.1 1013328
17:00−15ese4895100 0.3 1013296
20:00−15ese4996100 0.1 1013276